Regional Weather Roundup
Issued by NWS

Home | Current Version | Previous Version | Graphics & Text | Print | Product List | Glossary On
Versions: 1 2 3 4 5 6 7 8 9 10 11 12 13 14 15 16 17 18 19 20 21 22 23 24 25 26 27 28 29 30 31 32 33 34 35 36 37 38 39 40 41 42 43 44 45 46 47 48 49 50
466
ASUS43 KMKX 250911
RWRWI

WISCONSIN REGIONAL WEATHER ROUNDUP
NATIONAL WEATHER SERVICE MILWAUKEE/SULLIVAN WI
400 AM CDT TUE APR 25 2017

NOTE: "FAIR" INDICATES FEW OR NO CLOUDS BELOW 12,000 FEET WITH NO
SIGNIFICANT WEATHER AND/OR OBSTRUCTIONS TO VISIBILITY.

WIZ001-002-006>008-014>016-023>028-251000-
NORTHWEST WISCONSIN

CITY           SKY/WX    TMP DP  RH WIND       PRES   REMARKS
SUPERIOR ARPT  DRIZZLE   37  36  94 NE12      29.61F WCI  30
ASHLAND        CLOUDY    41  37  86 CALM      29.61R
HAYWARD        CLOUDY    59  33  37 E6        29.57F
SIREN          CLOUDY    50  42  73 CALM      29.53S
CUMBERLAND     CLOUDY    55  32  41 SE8       29.55F
RICE LAKE      CLOUDY    59  32  35 SE10G16   29.57F
CHETEK         CLOUDY    58  35  40 SE13      29.56F
LADYSMITH      CLOUDY    58  34  40 SE10      29.61F
EAU CLAIRE     CLOUDY    59  32  36 SE10      29.56F
MENOMONIE      CLOUDY    58  35  42 E9        29.55F
NEW RICHMOND   CLOUDY    58  34  40 SE6       29.52F
OSCEOLA        CLOUDY    58  38  47 SE13      29.53F
$$

WIZ003>005-009-010-017-018-251000-
NORTH CENTRAL WISCONSIN

CITY           SKY/WX    TMP DP  RH WIND       PRES   REMARKS
MANITOWISH WTR CLOUDY    49  33  54 SE3       29.65F
ARBOR VITAE    CLOUDY    52  36  54 SE9       29.65F
WOODRUFF       CLOUDY    52  36  54 SE9       29.65F
RHINELANDER    PTCLDY    50  36  58 E9        29.67F
EAGLE RIVER    MOCLDY    46  31  55 SE6       29.68F
LAND O LAKES   MOCLDY    46  32  57 SE6       29.70F
PHILLIPS       CLOUDY    49  35  58 E5        29.62F
TOMAHAWK       PTCLDY    51  32  48 SE3       29.66S
MEDFORD        MOCLDY    54  33  45 SE8       29.62F
MERRILL        MOCLDY    53  33  46 SE10      29.66F
$$

WIZ029-030-035-036-043>047-251000-
CENTRAL WISCONSIN

CITY           SKY/WX    TMP DP  RH WIND       PRES   REMARKS
WAUSAU         CLOUDY    54  33  45 E7        29.65F
MOSINEE        CLOUDY    55  30  38 SE10G18   29.66F
MARSHFIELD     CLOUDY    56  32  40 SE10      29.62F
STEVENS POINT  CLOUDY    55  31  40 SE8       29.67F
WAUPACA        CLOUDY    57  33  40 SE7       29.70S
WAUTOMA        CLOUDY    57  35  43 SE7       29.69S
WISC RAPIDS    PTCLDY    57  33  40 SE7       29.65F
CAMP DOUGLAS   MOCLDY    50  35  55 SE7       29.63F
$$

WIZ011>013-019>022-031-037>040-048>050-251000-
NORTHEAST WISCONSIN

CITY           SKY/WX    TMP DP  RH WIND       PRES   REMARKS
ANTIGO         CLOUDY    46  34  62 SE13      29.70S
SHAWANO        CLOUDY    54  35  48 SE7       29.71F
OCONTO         PTCLDY    49  36  61 SE8       29.74F
STURGEON BAY   CLOUDY    52  39  61 SE10      29.77R
GREEN BAY      CLEAR     51  37  58 E8        29.73F
MANITOWOC      MOCLDY    49  36  61 S12       29.75F
APPLETON       CLOUDY    52  32  46 E7        29.69F
CLINTONVILLE   CLOUDY    54  32  43 SE7       29.70F
OSHKOSH        PTCLDY    54  35  48 SE9       29.70F
$$

WIZ032>034-041-042-053>061-251000-
SOUTHWEST WISCONSIN

CITY           SKY/WX    TMP DP  RH WIND       PRES   REMARKS
LA CROSSE      PTCLDY    61  31  32 S9        29.58S
SPARTA         PTCLDY    60  32  35 SE13G18   29.61F
VIROQUA        PTCLDY    55  32  42 SE13      29.61F
BOSCOBEL       PTCLDY    58  33  39 VRB3      29.62F
PRAIRIE DU CHI PTCLDY    56  31  39 CALM      29.60S
PLATTEVILLE    PTCLDY    51  37  58 E12       29.64F
$$

WIZ056-057-062-063-064-067-068-251000-
SOUTH CENTRAL WISCONSIN

CITY           SKY/WX    TMP DP  RH WIND       PRES   REMARKS
REEDSBURG      PTCLDY    56  36  46 SE7       29.64F
BARABOO/DELLS  PTCLDY    56  35  44 S8        29.65F
LONE ROCK      PTCLDY    52  37  56 E8        29.64F
MINERAL POINT  CLOUDY    52  36  54 SE9       29.65S
MADISON        PTCLDY    57  36  45 SE12      29.67F
MIDDLETON      PTCLDY    57  37  46 SE8       29.67F
WATERTOWN      MOCLDY    56  39  53 SE8       29.69F
MONROE         CLOUDY    54  37  54 SE10      29.67S
JANESVILLE     CLOUDY    54  37  54 SE9       29.68F
$$

WIZ051-052-058>065-066-070>072-251000-
SOUTHEAST WISCONSIN

CITY           SKY/WX    TMP DP  RH WIND       PRES   REMARKS
MILWAUKEE      PTCLDY    52  39  61 SE10      29.72F
WAUKESHA       CLEAR     50  34  53 SE6       29.73F
MILWAUKEE/TIMM PTCLDY    52  32  46 SE5       29.73F
RACINE         CLEAR     51  38  60 S8        29.75S
KENOSHA        CLEAR     53  39  59 SE9       29.73S
FOND DU LAC    CLOUDY    54  34  46 SE14      29.70F
SHEBOYGAN      CLOUDY    50  37  61 S6        29.74F
WEST BEND      PTCLDY    52  34  50 SE7       29.72F
JUNEAU         PTCLDY    53  37  56 SE8       29.70F
$$

LSZ147-162-251000-
LAKE SUPERIOR

STATION/POSITION TIME  TEMP    WIND        PRES    WAVE
                       AIR SEA DIR/SP/G            HT/PER
                 (UTC) (F)     (DEG/KT/KT) (MB)    (FT/S)
DEVILS ISLAND    0900   38      30/ 15/ 16 1003.8R
PORT WING        0840   39      20/  4/  6 1003.4F
SAXON HARBOR     0900   44     310/ 11/ 21 1003.0R
$$

LMZ867-665-643>646-251000-
LAKE MICHIGAN

STATION/POSITION TIME  TEMP    WIND        PRES    WAVE
                       AIR SEA DIR/SP/G            HT/PER
                 (UTC) (F)     (DEG/KT/KT) (MB)    (FT/S)
CHAMBERS ISLAND  0840   53     130/  8/ 15 1007.1R
N MID LAKE BUOY  0750   42 37  110/  8/  8 1010.0S   2/ 4
NORTHPORT PIER   0840   43     150/  6/ 10 1007.8F
SISTER BAY       0806   52     150/  9/ 11   N/A
KEWAUNEE LAKESHO 0848   47      40/  4/  4 1007.7S
SHEBOYGAN LAKESH 0900   49     180/ 10/ 11 1007.4R
PORT WASHINGTON  0830   49     140/  3/  4 1008.1F
MILWAUKEE LAKESH 0850   47      90/  2/  3   N/A
S MID LAKE BUOY  0750   46 41  100/ 10/ 12 1008.2F   1
KENOSHA   LAKESH 0900   49     160/ 12/ 13 1006.8
$$

TC  - TEMPERATURE IN CELSIUS
VSB - VISIBILITY IN STATUTE MILES
WCI - WIND CHILL INDEX
HX  - HEAT INDEX





USA.gov is the U.S. government's official web portal to all federal, state and local government web resources and services.